Weather History for KCAE - February, 2013

Change the Weather History Date:

Wednesday, February 13, 2013

  Actual Average Record
Temperature  
Mean Temperature 54 °F 48 °F  
Max Temperature 59 °F 60 °F 79 °F (1976)
Min Temperature 49 °F 36 °F 7 °F (1899)
Degree Days  
Heating Degree Days 11 17  
Month to date heating degree days 193 234  
Since 1 July heating degree days 1438 1870  
Cooling Degree Days 0 0  
Month to date cooling degree days 0 0  
Year to date cooling degree days 25 1  
Growing Degree Days 4 (Base 50)    
Moisture  
Dew Point 47 °F    
Average Humidity 78    
Maximum Humidity 93    
Minimum Humidity 63    
Precipitation  
Precipitation 0.13 in 0.13 in 2.04 in (1960)
Month to date precipitation 2.78 1.60  
Year to date precipitation 3.99 5.18  
Sea Level Pressure  
Sea Level Pressure 29.78 in    
Wind  
Wind Speed 8 mph (SE)    
Max Wind Speed 21 mph    
Max Gust Speed 33 mph    
Visibility 6 miles    
Events Rain    
T = Trace of Precipitation, MM = Missing Value Source: NWS Daily Summary

Daily Weather History Graph

Daily Weather History Graph

Search for Another Location

Airport or City:

Trip Planner

Search our weather history database for the weather conditions in past years. The results will help you decide how hot, cold, wet, or windy it might be!

Date:

Astronomy

Feb. 13, 2013 Rise Set
Actual Time 7:10 AM EST 6:06 PM EST
Civil Twilight 6:45 AM EST 6:32 PM EST
Nautical Twilight 6:15 AM EST 7:01 PM EST
Astronomical Twilight 5:46 AM EST 7:31 PM EST
Moon 8:52 AM EST (2/13) 9:53 PM EST (2/13)
Length of Visible Light 11h 47m
Length of Day
10h 56m
Waxing Crescent, 13% of the Moon is Illuminated
Feb 13
Waxing Crescent
Feb 17
First Quarter
Feb 25
Full
Mar 4
Last Quarter
Mar 11
New

Hourly Weather History & Observations

Time (EST) Temp. Dew Point Humidity Pressure Visibility Wind Dir Wind Speed Gust Speed Precip Events Conditions
12:56 AM 50.0 °F 46.0 °F 86% 29.89 in 6.0 mi ENE 6.9 mph - 0.05 in Rain Light Rain
1:56 AM 48.9 °F 46.0 °F 90% 29.83 in 6.0 mi East 6.9 mph - 0.02 in Rain Light Rain
2:09 AM 48.2 °F 46.4 °F 93% 29.84 in 7.0 mi East 6.9 mph - 0.03 in Rain Light Rain
2:37 AM 50.0 °F 46.4 °F 87% 29.81 in 6.0 mi East 8.1 mph - 0.03 in   Overcast
2:56 AM 50.0 °F 46.9 °F 89% 29.82 in 4.0 mi East 6.9 mph - 0.03 in   Overcast
3:56 AM 50.0 °F 46.9 °F 89% 29.82 in 5.0 mi ENE 4.6 mph - 0.00 in Rain Light Rain
4:56 AM 50.0 °F 46.9 °F 89% 29.79 in 6.0 mi NE 6.9 mph - 0.01 in   Overcast
5:03 AM 50.0 °F 46.4 °F 87% 29.78 in 7.0 mi ENE 6.9 mph - N/A   Overcast
5:19 AM 50.0 °F 46.4 °F 87% 29.79 in 7.0 mi NE 8.1 mph - N/A   Overcast
5:56 AM 48.9 °F 46.0 °F 90% 29.78 in 4.0 mi ENE 5.8 mph - N/A   Overcast
6:11 AM 48.2 °F 46.4 °F 93% 29.79 in 2.5 mi East 5.8 mph - N/A   Overcast
6:21 AM 48.2 °F 46.4 °F 93% 29.79 in 3.0 mi ENE 6.9 mph - N/A   Overcast
6:29 AM 48.2 °F 46.4 °F 93% 29.78 in 3.0 mi ENE 6.9 mph - N/A   Overcast
6:56 AM 48.9 °F 46.0 °F 90% 29.76 in 4.0 mi ENE 6.9 mph - N/A   Overcast
7:09 AM 48.2 °F 46.4 °F 93% 29.77 in 3.0 mi ENE 6.9 mph - N/A   Overcast
7:42 AM 48.2 °F 46.4 °F 93% 29.81 in 2.0 mi Calm Calm - N/A   Overcast
7:54 AM 48.2 °F 46.4 °F 93% 29.76 in 1.0 mi East 9.2 mph - N/A   Overcast
7:56 AM 48.9 °F 46.0 °F 90% 29.76 in 1.0 mi East 9.2 mph - 0.00 in Rain Light Rain
8:56 AM 48.9 °F 46.9 °F 93% 29.78 in 1.0 mi East 6.9 mph - 0.00 in   Overcast
9:44 AM 50.0 °F 46.4 °F 87% 29.80 in 1.5 mi Calm Calm - N/A   Overcast
9:56 AM 50.0 °F 46.9 °F 89% 29.78 in 2.0 mi SE 3.5 mph - N/A   Overcast
10:31 AM 51.8 °F 48.2 °F 88% 29.75 in 1.5 mi SSE 3.5 mph - N/A   Overcast
10:56 AM 51.1 °F 48.9 °F 92% 29.76 in 1.5 mi South 5.8 mph - N/A   Overcast
11:26 AM 51.8 °F 50.0 °F 94% 29.74 in 1.0 mi SSE 3.5 mph - N/A   Overcast
11:54 AM 53.6 °F 51.8 °F 94% 29.73 in 2.5 mi Variable 3.5 mph - N/A   Overcast
11:56 AM 53.1 °F 51.1 °F 93% 29.73 in 1.8 mi Calm Calm - N/A   Overcast
12:42 PM 55.4 °F 51.8 °F 88% 29.74 in 3.0 mi WSW 5.8 mph - N/A   Overcast
12:56 PM 55.0 °F 53.1 °F 93% 29.71 in 7.0 mi WSW 6.9 mph - N/A   Overcast
1:03 PM 55.4 °F 53.6 °F 94% 29.74 in 6.0 mi WSW 10.4 mph - N/A   Overcast
1:34 PM 59.0 °F 53.6 °F 82% 29.71 in 10.0 mi WSW 19.6 mph 25.3 mph 0.00 in   Mostly Cloudy
1:56 PM 59.0 °F 51.1 °F 75% 29.72 in 10.0 mi West 17.3 mph 31.1 mph 0.00 in   Mostly Cloudy
2:56 PM 57.0 °F 48.9 °F 74% 29.72 in 10.0 mi West 24.2 mph 31.1 mph 0.00 in Rain Light Rain
3:56 PM 54.0 °F 48.9 °F 83% 29.73 in 9.0 mi WSW 9.2 mph - 0.02 in Rain Light Rain
4:56 PM 54.0 °F 46.9 °F 77% 29.76 in 10.0 mi WSW 10.4 mph - 0.00 in   Overcast
5:56 PM 53.1 °F 48.0 °F 83% 29.76 in 10.0 mi SSW 4.6 mph - N/A   Mostly Cloudy
6:56 PM 53.1 °F 48.9 °F 86% 29.78 in 10.0 mi WSW 5.8 mph - N/A   Mostly Cloudy
7:56 PM 53.1 °F 48.9 °F 86% 29.79 in 10.0 mi WSW 8.1 mph - N/A   Overcast
8:56 PM 52.0 °F 41.0 °F 66% 29.82 in 10.0 mi West 20.7 mph 27.6 mph N/A   Scattered Clouds
9:56 PM 51.1 °F 39.9 °F 66% 29.85 in 10.0 mi West 13.8 mph 21.9 mph N/A   Mostly Cloudy
10:56 PM 50.0 °F 39.9 °F 68% 29.88 in 10.0 mi West 11.5 mph - N/A   Mostly Cloudy
11:56 PM 48.0 °F 39.9 °F 74% 29.90 in 10.0 mi West 5.8 mph - N/A   Scattered Clouds